• In United Kingdom
  • List of Countries
  • For 7 days
  • Water Temperature
  • Satellite Maps
  • Weather Map
  • Weather Widgets
  • user-avatar
    Login

    Hourly Weather Sete

    Today, 22 September, Saturday

    Time Temperature Precipitation Wind Pressure Humidity
    00:00 +20°C° 0 mm 4 mps 765 mmHg 72%
    01:00 +19°C° 0 mm 4 mps 765 mmHg 72%
    02:00 +19°C° 0 mm 5 mps 765 mmHg 72%
    03:00 +17°C° 0 mm 5 mps 765 mmHg 71%
    04:00 +16°C° 0 mm 5 mps 765 mmHg 71%
    05:00 +16°C° 0 mm 5 mps 765 mmHg 71%
    06:00 +15°C° 0 mm 5 mps 765 mmHg 70%
    07:00 +19°C° 0 mm 5 mps 765 mmHg 56%
    08:00 +21°C° 0 mm 5 mps 765 mmHg 42%
    09:00 +25°C° 0 mm 5 mps 765 mmHg 28%
    10:00 +27°C° 0 mm 4 mps 765 mmHg 23%
    11:00 +29°C° 0 mm 4 mps 765 mmHg 18%
    12:00 +33°C° 0 mm 3 mps 764 mmHg 14%
    13:00 +33°C° 0 mm 4 mps 764 mmHg 15%
    14:00 +33°C° 0 mm 4 mps 764 mmHg 15%
    15:00 +34°C° 0 mm 4 mps 764 mmHg 16%
    16:00 +30°C° 0 mm 4 mps 764 mmHg 20%
    17:00 +28°C° 0 mm 4 mps 764 mmHg 24%
    18:00 +25°C° 0 mm 5 mps 764 mmHg 27%
    19:00 +25°C° 0 mm 5 mps 764 mmHg 29%
    20:00 +23°C° 0 mm 5 mps 765 mmHg 31%
    21:00 +22°C° 0 mm 5 mps 765 mmHg 33%
    22:00 +22°C° 0 mm 5 mps 765 mmHg 34%
    23:00 +21°C° 0 mm 5 mps 765 mmHg 35%

    Tomorrow, 23 September, Sunday

    Time Temperature Precipitation Wind Pressure Humidity
    00:00 +21°C° 0 mm 5 mps 765 mmHg 37%
    01:00 +21°C° 0 mm 5 mps 765 mmHg 39%
    02:00 +21°C° 0 mm 5 mps 765 mmHg 42%
    03:00 +21°C° 0 mm 5 mps 765 mmHg 44%
    04:00 +21°C° 0 mm 5 mps 765 mmHg 47%
    05:00 +21°C° 0 mm 5 mps 765 mmHg 49%
    06:00 +21°C° 0 mm 5 mps 765 mmHg 51%
    07:00 +25°C° 0 mm 5 mps 765 mmHg 48%
    08:00 +27°C° 0 mm 4 mps 765 mmHg 44%
    09:00 +29°C° 0 mm 4 mps 765 mmHg 41%
    10:00 +32°C° 0 mm 4 mps 765 mmHg 38%
    11:00 +33°C° 0 mm 4 mps 765 mmHg 36%
    12:00 +35°C° 0 mm 4 mps 764 mmHg 33%
    13:00 +35°C° 0 mm 4 mps 764 mmHg 34%
    14:00 +35°C° 0 mm 5 mps 763 mmHg 34%
    15:00 +35°C° 0 mm 5 mps 763 mmHg 34%
    16:00 +33°C° 0 mm 6 mps 763 mmHg 39%
    17:00 +30°C° 0 mm 6 mps 763 mmHg 45%
    18:00 +28°C° 0 mm 7 mps 764 mmHg 51%
    19:00 +28°C° 0 mm 7 mps 764 mmHg 55%
    20:00 +27°C° 0 mm 7 mps 765 mmHg 60%
    21:00 +26°C° 0 mm 7 mps 765 mmHg 65%
    22:00 +26°C° 0 mm 6 mps 765 mmHg 67%
    23:00 +24°C° 0 mm 6 mps 765 mmHg 70%

    Day after tomorrow, 24 September, Monday

    Time Temperature Precipitation Wind Pressure Humidity
    00:00 +23°C° 0 mm 6 mps 765 mmHg 72%
    01:00 +23°C° 0 mm 6 mps 765 mmHg 73%
    02:00 +23°C° 0 mm 6 mps 765 mmHg 74%
    03:00 +22°C° 0 mm 6 mps 765 mmHg 75%
    04:00 +22°C° 0 mm 6 mps 765 mmHg 75%
    05:00 +22°C° 0 mm 6 mps 765 mmHg 75%
    06:00 +21°C° 0 mm 5 mps 765 mmHg 76%
    07:00 +22°C° 0 mm 6 mps 766 mmHg 66%
    08:00 +24°C° 0 mm 6 mps 766 mmHg 56%
    09:00 +26°C° 0 mm 7 mps 766 mmHg 46%
    10:00 +27°C° 0 mm 7 mps 766 mmHg 39%
    11:00 +28°C° 0 mm 7 mps 766 mmHg 32%
    12:00 +29°C° 0 mm 7 mps 766 mmHg 25%
    13:00 +28°C° 0 mm 7 mps 765 mmHg 25%
    14:00 +28°C° 0 mm 8 mps 765 mmHg 24%
    15:00 +28°C° 0 mm 8 mps 765 mmHg 24%
    16:00 +26°C° 0 mm 8 mps 765 mmHg 27%
    17:00 +23°C° 0 mm 8 mps 765 mmHg 30%
    18:00 +20°C° 0 mm 7 mps 765 mmHg 33%
    19:00 +18°C° 0 mm 7 mps 766 mmHg 35%
    20:00 +17°C° 0 mm 7 mps 766 mmHg 37%
    21:00 +15°C° 0 mm 7 mps 767 mmHg 40%
    22:00 +15°C° 0 mm 7 mps 767 mmHg 42%
    23:00 +14°C° 0 mm 6 mps 767 mmHg 43%

    25 September, Tuesday

    Time Temperature Precipitation Wind Pressure Humidity
    00:00 +13°C° 0 mm 6 mps 767 mmHg 45%
    01:00 +13°C° 0 mm 6 mps 767 mmHg 47%
    02:00 +12°C° 0 mm 5 mps 767 mmHg 48%
    03:00 +12°C° 0 mm 5 mps 767 mmHg 50%
    04:00 +12°C° 0 mm 5 mps 768 mmHg 49%
    05:00 +12°C° 0 mm 4 mps 768 mmHg 48%
    06:00 +12°C° 0 mm 4 mps 768 mmHg 47%
    07:00 +15°C° 0 mm 4 mps 768 mmHg 43%
    08:00 +18°C° 0 mm 3 mps 769 mmHg 39%
    09:00 +21°C° 0 mm 3 mps 769 mmHg 35%
    10:00 +22°C° 0 mm 3 mps 769 mmHg 38%
    11:00 +24°C° 0 mm 3 mps 769 mmHg 41%
    12:00 +26°C° 0 mm 3 mps 769 mmHg 44%
    13:00 +26°C° 0 mm 3 mps 769 mmHg 45%
    14:00 +26°C° 0 mm 3 mps 769 mmHg 46%
    15:00 +26°C° 0 mm 3 mps 768 mmHg 47%
    16:00 +24°C° 0 mm 3 mps 769 mmHg 54%
    17:00 +21°C° 0 mm 3 mps 769 mmHg 61%
    18:00 +19°C° 0 mm 2 mps 769 mmHg 68%
    19:00 +19°C° 0 mm 2 mps 770 mmHg 70%
    20:00 +18°C° 0 mm 2 mps 770 mmHg 73%
    21:00 +18°C° 0 mm 2 mps 770 mmHg 75%
    22:00 +17°C° 0 mm 3 mps 771 mmHg 76%
    23:00 +17°C° 0 mm 3 mps 771 mmHg 77%

    26 September, Wednesday

    Time Temperature Precipitation Wind Pressure Humidity
    00:00 +17°C° 0 mm 3 mps 771 mmHg 77%
    01:00 +17°C° 0 mm 3 mps 771 mmHg 78%
    02:00 +17°C° 0 mm 4 mps 771 mmHg 78%
    03:00 +17°C° 0 mm 4 mps 771 mmHg 79%
    04:00 +15°C° 0 mm 4 mps 771 mmHg 79%
    05:00 +15°C° 0 mm 4 mps 771 mmHg 80%
    06:00 +15°C° 0 mm 4 mps 771 mmHg 80%
    07:00 +18°C° 0 mm 4 mps 771 mmHg 69%
    08:00 +21°C° 0 mm 4 mps 772 mmHg 58%
    09:00 +23°C° 0 mm 4 mps 772 mmHg 48%
    10:00 +25°C° 0 mm 4 mps 772 mmHg 43%
    11:00 +26°C° 0 mm 5 mps 772 mmHg 39%
    12:00 +27°C° 0 mm 5 mps 771 mmHg 35%
    13:00 +27°C° 0 mm 5 mps 771 mmHg 36%
    14:00 +26°C° 0 mm 5 mps 771 mmHg 36%
    15:00 +26°C° 0 mm 5 mps 770 mmHg 37%
    16:00 +23°C° 0 mm 4 mps 771 mmHg 47%
    17:00 +21°C° 0 mm 4 mps 771 mmHg 56%
    18:00 +19°C° 0 mm 3 mps 771 mmHg 65%
    19:00 +18°C° 0 mm 3 mps 771 mmHg 70%
    20:00 +17°C° 0 mm 2 mps 772 mmHg 74%
    21:00 +17°C° 0 mm 2 mps 772 mmHg 78%
    22:00 +17°C° 0 mm 2 mps 772 mmHg 78%
    23:00 +17°C° 0 mm 2 mps 772 mmHg 78%

    27 September, Thursday

    Time Temperature Precipitation Wind Pressure Humidity
    00:00 +16°C° 0 mm 2 mps 771 mmHg 79%
    01:00 +16°C° 0 mm 2 mps 771 mmHg 78%
    02:00 +16°C° 0 mm 3 mps 771 mmHg 78%
    03:00 +16°C° 0 mm 3 mps 771 mmHg 78%
    04:00 +16°C° 0 mm 3 mps 770 mmHg 77%
    05:00 +16°C° 0 mm 3 mps 770 mmHg 77%
    06:00 +16°C° 0 mm 3 mps 770 mmHg 77%
    07:00 +18°C° 0 mm 3 mps 770 mmHg 69%
    08:00 +21°C° 0 mm 3 mps 770 mmHg 60%
    09:00 +25°C° 0 mm 3 mps 769 mmHg 51%
    10:00 +26°C° 0 mm 3 mps 769 mmHg 48%
    11:00 +27°C° 0 mm 3 mps 768 mmHg 45%
    12:00 +28°C° 0 mm 3 mps 768 mmHg 41%
    13:00 +28°C° 0 mm 3 mps 767 mmHg 42%
    14:00 +28°C° 0 mm 3 mps 767 mmHg 42%
    15:00 +28°C° 0 mm 3 mps 766 mmHg 43%
    16:00 +26°C° 0 mm 2 mps 766 mmHg 53%
    17:00 +23°C° 0 mm 2 mps 766 mmHg 62%
    18:00 +20°C° 0 mm 2 mps 766 mmHg 72%
    19:00 +20°C° 0 mm 2 mps 766 mmHg 74%
    20:00 +19°C° 0 mm 2 mps 766 mmHg 76%
    21:00 +18°C° 0 mm 2 mps 766 mmHg 78%
    22:00 +18°C° 0 mm 2 mps 766 mmHg 76%
    23:00 +18°C° 0 mm 2 mps 765 mmHg 74%
    Show more